Regional Weather Roundup
Issued by NWS Boston, MA

Home | Current Version | Previous Version | Text Only | Print | Product List | Glossary On
Versions: 1 2 3 4 5 6 7 8 9 10 11 12 13 14 15 16 17 18 19 20 21 22 23 24 25 26 27 28 29 30 31 32 33 34 35 36 37 38 39 40 41 42 43 44 45 46 47 48 49 50
000
ASUS41 KBOX 070210
RWRBOX

REGIONAL WEATHER ROUNDUP
NATIONAL WEATHER SERVICE TAUNTON MA
1000 PM EDT MON JUL 06 2015

NOTE:  "FAIR" INDICATES FEW OR NO CLOUDS BELOW 12,000 FEET WITH NO
SIGNIFICANT WEATHER AND/OR OBSTRUCTIONS TO VISIBILITY.  THE FOLLOWING
OBSERVATION LOCATIONS DO NOT REPORT PRESENT WEATHER...PROVINCETOWN...
SMITHFIELD...BLOCK ISLAND...KEENE...AND OXFORD.

MAZALL-070300-
EASTERN MASSACHUSETTS

CITY           SKY/WX    TMP DP  RH WIND       PRES   REMARKS
BOSTON         PTCLDY    73  64  73 S9        30.10R
BEVERLY        CLEAR     70  63  78 S6        30.09S
LAWRENCE       CLEAR     73  64  73 CALM      30.11R
BEDFORD        CLEAR     73  65  75 S7        30.09R
BLUE HILL        N/A     70  63  78 S10       30.12S
NORWOOD        CLEAR     70  64  81 S6        30.11R
MARSHFIELD     CLEAR     72  64  78 SW7       30.13S
PLYMOUTH       CLEAR     69  64  84 S3        30.13S
TAUNTON        CLEAR     66  62  87 SE3       30.12S
NEW BEDFORD    CLEAR     68  63  84 S3        30.12F
$$

MAZALL-070300-
CAPE COD AND THE ISLANDS

CITY           SKY/WX    TMP DP  RH WIND       PRES   REMARKS
FALMOUTH       CLEAR     66  64  94 SW7       30.14S
HYANNIS        CLEAR     70  64  81 S7        30.13S
CHATHAM        CLEAR     68  65  90 SW6       30.15S
PROVINCETOWN   CLEAR     66  10  11 S8        30.13S
NANTUCKET      CLEAR     65  61  87 S8        30.15S
MARTHAS VNYRD  CLEAR     64  62  93 CALM      30.14S FOG
$$

MAZALL-070300-
CENTRAL AND WESTERN MASSACHUSETTS

CITY           SKY/WX    TMP DP  RH WIND       PRES   REMARKS
WORCESTER      CLEAR     72  65  78 SW9       30.14S
FITCHBURG      CLEAR     75  64  68 S7        30.11S
ORANGE         CLEAR     72  66  81 S7        30.11S
SPRINGFIELD    CLEAR     73  65  75 S8        30.09S
WESTFIELD      CLEAR     73  65  75 S5        30.10S
NORTH ADAMS    CLEAR     68  62  81 SE3       30.10R
PITTSFIELD     CLEAR     71  65  81 S9        30.11S
$$

RIZALL-070300-
RHODE ISLAND

CITY           SKY/WX    TMP DP  RH WIND       PRES   REMARKS
PROVIDENCE     PTCLDY    70  63  78 S5        30.13S
NEWPORT        CLEAR     68  63  84 S6        30.13S
BLOCK ISLAND   CLEAR     70  64  83 S6        30.13F
SMITHFIELD     CLEAR     68  59  73 SW5       30.13S
WESTERLY       CLEAR     69  65  86 CALM      30.14S
$$

CTZALL-070300-
CONNECTICUT

CITY           SKY/WX    TMP DP  RH WIND       PRES   REMARKS
BRADLEY INTL   CLEAR     73  64  73 S12       30.10S
HARTFORD       CLEAR     73  65  75 S9        30.10F
BRIDGEPORT     CLEAR     73  65  75 S3        30.11S
DANBURY        CLEAR     70  62  76 S5        30.13S
GROTON         CLEAR     69  65  86 CALM      30.12F
NEW HAVEN      CLEAR     70  65  84 CALM      30.12R
CHESTER        NOT AVBL
MERIDEN        CLEAR     72  64  76 S3        30.12R
WILLIMANTIC    CLEAR     71  65  81 S3        30.13R
OXFORD         CLEAR     70  61  73 CALM      30.14S
$$

MEZ002-015-021-024-NHZ003-005-008-011-012-014-VTZ005-008-070300-
NORTHERN NEW ENGLAND

CITY           SKY/WX    TMP DP  RH WIND       PRES   REMARKS
PORTLAND ME    CLEAR     68  60  75 S3        30.11S
BANGOR ME      FAIR      67  60  78 S6        30.12R
CONCORD NH     CLEAR     71  63  75 SE3       30.09S
MANCHESTER NH  PTCLDY    74  63  68 SE5       30.07S
NASHUA NH      CLEAR     74  65  73 CALM      30.10R
PORTSMOUTH NH  PTCLDY    68  63  83 SE5       30.08S
JAFFREY NH     CLEAR     69  62  78 SW5       30.13S
KEENE NH       CLEAR     70  61  73 CALM      30.10R
BURLINGTON VT  CLEAR     73  57  57 S5        30.05R
MT. WASHINGTON MOCLDY    50  48  93 SW21G28     N/A
$$

NYZ052-076-070300-
EASTERN NEW YORK

CITY           SKY/WX    TMP DP  RH WIND       PRES   REMARKS
ALBANY         PTCLDY    78  66  66 S8        30.07R
NEW YORK CITY  MOCLDY    76  64  66 SE9       30.10R
$$

ANZALL-070300-
MARINE OBSERVATIONS

STATION/POSITION TIME  TEMP    WIND        PRES    VSBY  WAVE
                       AIR SEA DIR/SP/G                  HT/PER
                 (UTC) (F)     (DEG/KT/KT) (MB)    (MI)  (FT/S)
BOSTON BUOY      0150   66 63  180/  8/ 10 1019.8R         1/ 7
BUZZARDS BAY     0100          190/  9/ 10 1021.2F
NANTUCKET SOUND  0150   68 65  210/  8/ 10 1020.5F         1
MASS BAY-STELLWA 0104   68 65  170/ 10/ 12 1018.4F  1 7/8  2/ 8
ISLE OF SHOALS   0200   68     170/ 11/ 12 1018.4F
S OF BLOCK IS    0108      68                N/A           3/ 7
$$

......................KEY.........................
  SKY/WX - SKY CONDITION/PRESENT WEATHER
  TMP    - TEMPERATURE IN FAHRENHEIT
  DWPT   - DEWPOINT IN FAHRENHEIT
  RH     - RELATIVE HUMIDITY IN PERCENT
  WIND   - DIRECTION AND SPEED IN MPH
  PRES   - MEAN SEA LEVEL PRESSURE IN INCHES OF HG
  WCI    - WIND CHILL INDEX
  VSB    - VISIBILITY IN MILES
  HX     - HEAT INDEX
  TC     - TEMPERATURE IN CELSIUS
  VRB    - VARIABLE WIND DIRECTION
  N/A    - NOT AVAILABLE



USA.gov is the U.S. government's official web portal to all federal, state and local government web resources and services.